| time (UTC) | temp C | wind direction | speed KPH | gust KPH | rain 1hr cm | rain 24hr cm | rain mn cm | humidity % | barometer mb |
| 20260510120046 | 20 | 117 | 1.6 | 4.8 | 0.00 | 0.00 | 0.00 | 94 | 1009.9 |
| 20260510114546 | 20 | 117 | 0.0 | 3.2 | 0.00 | 0.00 | 0.00 | 94 | 1009.8 |
| 20260510113045 | 20 | 117 | 1.6 | 4.8 | 0.00 | 0.00 | 0.00 | 94 | 1009.7 |
| 20260510111604 | 20 | 117 | 0.0 | 1.6 | 0.00 | 0.00 | 0.00 | 94 | 1009.8 |
| 20260510110047 | 19 | 117 | 0.0 | 3.2 | 0.00 | 0.00 | 0.00 | 93 | 1009.8 |
| 20260510104540 | 19 | 117 | 1.6 | 3.2 | 0.00 | 0.00 | 0.00 | 93 | 1009.8 |
| 20260510103040 | 20 | 117 | 0.0 | 3.2 | 0.00 | 0.00 | 0.00 | 93 | 1009.7 |
| 20260510101538 | 20 | 117 | 0.0 | 4.8 | 0.00 | 0.00 | 0.00 | 93 | 1009.7 |
| 20260510100038 | 20 | 117 | 0.0 | 3.2 | 0.00 | 0.00 | 0.00 | 93 | 1009.8 |
| 20260510094536 | 20 | 117 | 1.6 | 4.8 | 0.00 | 0.00 | 0.00 | 92 | 1009.8 |
| 20260510093056 | 20 | 117 | 0.0 | 3.2 | 0.00 | 0.00 | 0.00 | 92 | 1009.8 |
| 20260510091534 | 20 | 117 | 0.0 | 1.6 | 0.00 | 0.00 | 0.00 | 92 | 1009.9 |
| 20260510090046 | 20 | 117 | 0.0 | 1.6 | 0.00 | 0.00 | 0.00 | 92 | 1009.7 |
| 20260510084532 | 20 | 117 | 3.2 | 4.8 | 0.00 | 0.00 | 0.00 | 92 | 1009.7 |
| 20260510083029 | 20 | 117 | 1.6 | 4.8 | 0.00 | 0.00 | 0.00 | 92 | 1009.7 |
| 20260510081528 | 20 | 117 | 1.6 | 3.2 | 0.00 | 0.00 | 0.00 | 91 | 1009.6 |
| 20260510080026 | 20 | 117 | 0.0 | 3.2 | 0.00 | 0.00 | 0.00 | 91 | 1009.5 |
| 20260510074526 | 20 | 117 | 0.0 | 4.8 | 0.00 | 0.00 | 0.00 | 92 | 1009.5 |
| 20260510073025 | 20 | 117 | 3.2 | 4.8 | 0.00 | 0.00 | 0.00 | 92 | 1009.4 |
| 20260510071523 | 20 | 117 | 3.2 | 6.4 | 0.00 | 0.00 | 0.00 | 92 | 1009.6 |
| 20260510070021 | 21 | 117 | 3.2 | 6.4 | 0.00 | 0.00 | 0.00 | 92 | 1009.7 |
| 20260510064519 | 21 | 117 | 3.2 | 9.7 | 0.00 | 0.00 | 0.00 | 91 | 1009.7 |
| 20260510063017 | 21 | 117 | 3.2 | 4.8 | 0.00 | 0.00 | 0.00 | 91 | 1009.7 |
| 20260510061515 | 21 | 117 | 3.2 | 6.4 | 0.00 | 0.00 | 0.00 | 90 | 1009.6 |
| 20260510060013 | 22 | 117 | 1.6 | 4.8 | 0.00 | 0.00 | 0.00 | 89 | 1009.4 |
| 20260510054511 | 22 | 117 | 0.0 | 3.2 | 0.00 | 0.00 | 0.00 | 90 | 1009.3 |
| 20260510053010 | 22 | 117 | 0.0 | 3.2 | 0.00 | 0.00 | 0.00 | 89 | 1009.3 |
| 20260510051507 | 22 | 118 | 1.6 | 4.8 | 0.00 | 0.00 | 0.00 | 88 | 1009.4 |
| 20260510050002 | 23 | 117 | 1.6 | 4.8 | 0.00 | 0.00 | 0.00 | 89 | 1009.2 |
| 20260510044637 | 23 | 117 | 1.6 | 3.2 | 0.00 | 0.00 | 0.00 | 88 | 1009.1 |
| 20260510043054 | 23 | 117 | 1.6 | 3.2 | 0.00 | 0.00 | 0.00 | 88 | 1009.1 |
| 20260510041547 | 23 | 117 | 1.6 | 3.2 | 0.00 | 0.00 | 0.00 | 88 | 1009.0 |
| 20260510040040 | 23 | 117 | 3.2 | 4.8 | 0.00 | 0.00 | 0.00 | 87 | 1008.9 |
| 20260510034536 | 23 | 117 | 3.2 | 4.8 | 0.00 | 0.00 | 0.00 | 87 | 1008.7 |
| 20260510033034 | 23 | 117 | 3.2 | 4.8 | 0.00 | 0.00 | 0.00 | 85 | 1008.6 |
| 20260510031537 | 24 | 117 | 3.2 | 6.4 | 0.00 | 0.00 | 0.00 | 84 | 1008.5 |
| 20260510030038 | 24 | 117 | 6.4 | 14.5 | 0.00 | 0.00 | 0.00 | 83 | 1008.3 |
| 20260510024537 | 25 | 123 | 3.2 | 6.4 | 0.00 | 0.00 | 0.00 | 80 | 1007.8 |
| 20260510023032 | 26 | 123 | 1.6 | 4.8 | 0.00 | 0.00 | 0.00 | 78 | 1007.7 |
| 20260510021533 | 26 | 123 | 1.6 | 6.4 | 0.00 | 0.00 | 0.00 | 77 | 1007.5 |
| 20260510020030 | 27 | 123 | 1.6 | 3.2 | 0.00 | 0.00 | 0.00 | 76 | 1007.1 |
| 20260510014527 | 27 | 123 | 0.0 | 0.0 | 0.00 | 0.00 | 0.00 | 76 | 1006.8 |
| 20260510013024 | 27 | 123 | 0.0 | 4.8 | 0.00 | 0.00 | 0.00 | 76 | 1006.7 |
| 20260510011516 | 27 | 123 | 3.2 | 4.8 | 0.00 | 0.00 | 0.00 | 77 | 1006.8 |
| 20260510010015 | 27 | 123 | 3.2 | 6.4 | 0.00 | 0.00 | 0.00 | 75 | 1006.7 |
| 20260510004507 | 28 | 123 | 3.2 | 9.7 | 0.00 | 0.00 | 0.00 | 73 | 1006.8 |
| 20260510003013 | 29 | 215 | 3.2 | 6.4 | 0.00 | 0.00 | 0.00 | 74 | 1006.8 |
| 20260510001605 | 29 | 215 | 1.6 | 4.8 | 0.00 | 0.00 | 0.00 | 72 | 1006.6 |
| 20260510000056 | 30 | 215 | 1.6 | 6.4 | 0.00 | 0.00 | 0.00 | 67 | 1006.3 |
| 20260509234604 | 30 | 216 | 3.2 | 9.7 | 0.00 | 0.00 | 0.00 | 64 | 1006.4 |
| 20260509233045 | 32 | 227 | 1.6 | 3.2 | 0.00 | 0.00 | 0.00 | 60 | 1006.2 |
| 20260509231541 | 32 | 227 | 1.6 | 4.8 | 0.00 | 0.00 | 0.00 | 56 | 1006.1 |
| 20260509230037 | 33 | 227 | 0.0 | 6.4 | 0.00 | 0.00 | 0.00 | 54 | 1006.1 |
| 20260509224538 | 32 | 227 | 3.2 | 8.0 | 0.00 | 0.00 | 0.00 | 58 | 1006.0 |
| 20260509223027 | 32 | 232 | 3.2 | 8.0 | 0.00 | 0.00 | 0.00 | 55 | 1006.1 |
| 20260509221526 | 32 | 261 | 4.8 | 9.7 | 0.00 | 0.00 | 0.00 | 55 | 1005.9 |
| 20260509220020 | 32 | 286 | 1.6 | 12.9 | 0.00 | 0.00 | 0.00 | 59 | 1005.8 |
| 20260509214514 | 31 | 305 | 4.8 | 14.5 | 0.00 | 0.00 | 0.00 | 59 | 1006.0 |
| 20260509213010 | 31 | 342 | 4.8 | 16.1 | 0.00 | 0.00 | 0.00 | 60 | 1006.5 |
| 20260509211504 | 31 | 355 | 6.4 | 14.5 | 0.00 | 0.00 | 0.00 | 60 | 1006.7 |
| 20260509210101 | 31 | 20 | 8.0 | 19.3 | 0.00 | 0.00 | 0.00 | 63 | 1006.8 |
| 20260509204601 | 31 | 294 | 8.0 | 17.7 | 0.00 | 0.00 | 0.00 | 61 | 1007.0 |
| 20260509203115 | 31 | 257 | 4.8 | 14.5 | 0.00 | 0.00 | 0.00 | 63 | 1007.1 |
| 20260509201549 | 31 | 286 | 8.0 | 14.5 | 0.00 | 0.00 | 0.00 | 66 | 1007.1 |
| 20260509200053 | 31 | 273 | 8.0 | 19.3 | 0.00 | 0.00 | 0.00 | 63 | 1007.2 |
| 20260509194540 | 31 | 306 | 9.7 | 16.1 | 0.00 | 0.00 | 0.00 | 65 | 1007.5 |
| 20260509193034 | 30 | 282 | 8.0 | 16.1 | 0.00 | 0.00 | 0.00 | 64 | 1007.9 |
| 20260509191532 | 30 | 295 | 4.8 | 16.1 | 0.00 | 0.00 | 0.00 | 67 | 1007.9 |
| 20260509190023 | 30 | 306 | 9.7 | 17.7 | 0.00 | 0.00 | 0.00 | 68 | 1008.1 |
| 20260509184526 | 29 | 302 | 3.2 | 12.9 | 0.00 | 0.00 | 0.00 | 72 | 1008.3 |
| 20260509183140 | 29 | 271 | 4.8 | 11.3 | 0.00 | 0.00 | 0.00 | 72 | 1008.5 |
| 20260509181510 | 28 | 307 | 9.7 | 14.5 | 0.00 | 0.00 | 0.00 | 76 | 1008.8 |
| 20260509180005 | 28 | 304 | 4.8 | 8.0 | 0.00 | 0.00 | 0.00 | 77 | 1009.1 |
| 20260509174502 | 27 | 308 | 4.8 | 11.3 | 0.00 | 0.00 | 0.00 | 79 | 1009.1 |
| 20260509173104 | 27 | 307 | 6.4 | 12.9 | 0.00 | 0.00 | 0.00 | 80 | 1009.3 |
| 20260509171553 | 27 | 286 | 4.8 | 12.9 | 0.00 | 0.00 | 0.00 | 81 | 1009.4 |
| 20260509170054 | 26 | 292 | 8.0 | 12.9 | 0.00 | 0.00 | 0.00 | 86 | 1009.5 |
| 20260509164557 | 25 | 262 | 4.8 | 11.3 | 0.00 | 0.00 | 0.00 | 90 | 1009.4 |
| 20260509163041 | 23 | 279 | 3.2 | 14.5 | 0.00 | 0.00 | 0.00 | 94 | 1009.5 |
| 20260509161538 | 23 | 284 | 3.2 | 8.0 | 0.00 | 0.00 | 0.00 | 95 | 1009.5 |
| 20260509160038 | 23 | 288 | 4.8 | 11.3 | 0.00 | 0.00 | 0.00 | 95 | 1009.4 |
| 20260509154536 | 23 | 290 | 4.8 | 8.0 | 0.00 | 0.00 | 0.00 | 95 | 1009.6 |
| 20260509153037 | 23 | 278 | 9.7 | 20.9 | 0.00 | 0.00 | 0.00 | 95 | 1009.5 |
| 20260509151535 | 23 | 233 | 3.2 | 8.0 | 0.00 | 0.00 | 0.00 | 95 | 1009.2 |
| 20260509150039 | 23 | 215 | 3.2 | 6.4 | 0.00 | 0.00 | 0.00 | 95 | 1009.1 |
| 20260509144539 | 23 | 215 | 1.6 | 6.4 | 0.00 | 0.00 | 0.00 | 95 | 1009.1 |
| 20260509143032 | 23 | 129 | 1.6 | 6.4 | 0.00 | 0.00 | 0.00 | 95 | 1009.5 |
| 20260509141527 | 23 | 129 | 1.6 | 4.8 | 0.00 | 0.00 | 0.00 | 95 | 1009.7 |
| 20260509140023 | 23 | 129 | 0.0 | 1.6 | 0.00 | 0.00 | 0.00 | 95 | 1009.1 |
| 20260509134519 | 23 | 128 | 3.2 | 11.3 | 0.00 | 0.00 | 0.00 | 95 | 1008.7 |
| 20260509133016 | 23 | 161 | 12.9 | 17.7 | 0.00 | 0.00 | 0.00 | 95 | 1008.1 |
| 20260509131511 | 22 | 38 | 3.2 | 8.0 | 0.00 | 0.00 | 0.00 | 95 | 1009.1 |
| 20260509130010 | 22 | 38 | 3.2 | 8.0 | 0.00 | 0.00 | 0.00 | 95 | 1010.0 |
| 20260509124509 | 22 | 52 | 0.0 | 4.8 | 0.00 | 0.00 | 0.00 | 95 | 1009.8 |
| 20260509123008 | 22 | 52 | 1.6 | 6.4 | 0.00 | 0.00 | 0.00 | 95 | 1009.7 |
| 20260509121507 | 22 | 52 | 3.2 | 6.4 | 0.00 | 0.00 | 0.00 | 95 | 1009.8 |